DLH2020 EDDF-EDDM

Flight info

Callsign DLH2020
Flight time 0h 37m
Altitude 23000
Route CINDY8S/18 CINDY Z74 HAREM T104 ROKIL ROKIL1B
Aircraft CRJ9/M-SDFGIRWY/S

Departure

Time 2026-04-17 21:45
Airport Frankfurt Main Airport (EDDF)

Arrival

Time 2026-04-17 22:22
Airport Munich Airport (EDDM)
Time Latitude Longitude Altitude Speed Heading
2026-04-17 21:13 50.04868 8.58976 344 ft 0 kts 339°
2026-04-17 21:37 50.04857 8.58983 355 ft 4 kts 339°
2026-04-17 21:37 50.04831 8.58998 344 ft 4 kts 339°
2026-04-17 21:37 50.04809 8.59010 354 ft 4 kts 331°
2026-04-17 21:37 50.04794 8.59035 346 ft 4 kts 268°
2026-04-17 21:38 50.04799 8.59070 346 ft 1 kts 250°
2026-04-17 21:38 50.04799 8.59071 346 ft 7 kts 250°
2026-04-17 21:39 50.04799 8.59070 346 ft 0 kts 250°
2026-04-17 21:40 50.04795 8.59052 347 ft 4 kts 249°
2026-04-17 21:40 50.04782 8.58997 346 ft 7 kts 252°
2026-04-17 21:40 50.04761 8.58905 350 ft 11 kts 249°
2026-04-17 21:40 50.04746 8.58846 349 ft 0 kts 248°
2026-04-17 21:41 50.04742 8.58832 345 ft 0 kts 246°
2026-04-17 21:41 50.04735 8.58809 351 ft 5 kts 237°
2026-04-17 21:42 50.04693 8.58771 350 ft 9 kts 194°
2026-04-17 21:42 50.04616 8.58747 344 ft 13 kts 205°
2026-04-17 21:42 50.04542 8.58661 346 ft 13 kts 220°
2026-04-17 21:42 50.04481 8.58554 348 ft 13 kts 245°
2026-04-17 21:43 50.04454 8.58448 348 ft 8 kts 251°
2026-04-17 21:43 50.04445 8.58409 347 ft 0 kts 249°
2026-04-17 21:43 50.04444 8.58405 348 ft 0 kts 249°
2026-04-17 21:43 50.04442 8.58398 349 ft 1 kts 250°
2026-04-17 21:44 50.04440 8.58388 348 ft 1 kts 250°
2026-04-17 21:44 50.04430 8.58346 346 ft 20 kts 250°
2026-04-17 21:44 50.04288 8.57749 345 ft 100 kts 250°
2026-04-17 21:44 50.03964 8.56394 375 ft 160 kts 249°
2026-04-17 21:45 50.03558 8.54657 792 ft 180 kts 255°
2026-04-17 21:45 50.03174 8.52759 1530 ft 191 kts 252°
2026-04-17 21:45 50.02708 8.50689 2055 ft 217 kts 247°
2026-04-17 21:45 50.01748 8.48739 2618 ft 237 kts 223°
2026-04-17 21:46 50.00312 8.47527 3760 ft 241 kts 191°
2026-04-17 21:46 49.98597 8.47836 4465 ft 261 kts 154°
2026-04-17 21:46 49.97209 8.49686 4738 ft 280 kts 126°
2026-04-17 21:46 49.96442 8.52430 5991 ft 273 kts 107°
2026-04-17 21:47 49.95742 8.55158 7030 ft 273 kts 119°
2026-04-17 21:47 49.94811 8.57751 7947 ft 277 kts 121°
2026-04-17 21:47 49.93852 8.60311 8861 ft 280 kts 122°
2026-04-17 21:47 49.92869 8.62939 9785 ft 284 kts 121°
2026-04-17 21:48 49.91902 8.65649 10532 ft 291 kts 120°
2026-04-17 21:48 49.90940 8.68403 10884 ft 290 kts 119°
2026-04-17 21:48 49.89968 8.71195 11045 ft 299 kts 120°
2026-04-17 21:48 49.88951 8.74070 11130 ft 310 kts 120°
2026-04-17 21:49 49.87892 8.77027 11175 ft 317 kts 120°
2026-04-17 21:49 49.86805 8.80040 11196 ft 323 kts 120°
2026-04-17 21:49 49.85684 8.83101 11210 ft 330 kts 121°
2026-04-17 21:49 49.84500 8.86199 11276 ft 343 kts 122°
2026-04-17 21:50 49.83302 8.89381 12351 ft 343 kts 120°
2026-04-17 21:50 49.82133 8.92626 12939 ft 361 kts 120°
2026-04-17 21:50 49.80887 8.96136 13334 ft 384 kts 120°
2026-04-17 21:50 49.79573 8.99856 13871 ft 403 kts 120°
2026-04-17 21:51 49.78196 9.03724 14575 ft 415 kts 120°
2026-04-17 21:51 49.76774 9.07646 15481 ft 421 kts 120°
2026-04-17 21:51 49.75607 9.11796 16513 ft 423 kts 108°
2026-04-17 21:51 49.74855 9.16218 17379 ft 428 kts 108°
2026-04-17 21:52 49.73515 9.20333 18202 ft 433 kts 126°
2026-04-17 21:52 49.71663 9.24031 18956 ft 437 kts 129°
2026-04-17 21:52 49.69723 9.27686 19671 ft 443 kts 131°
2026-04-17 21:52 49.67702 9.31303 20388 ft 447 kts 132°
2026-04-17 21:53 49.65627 9.34918 21085 ft 452 kts 133°
2026-04-17 21:53 49.63520 9.38458 21751 ft 456 kts 133°
2026-04-17 21:53 49.61388 9.42119 22413 ft 461 kts 131°
2026-04-17 21:53 49.59272 9.45874 22869 ft 463 kts 131°
2026-04-17 21:54 49.57164 9.49626 23054 ft 465 kts 131°
2026-04-17 21:54 49.55022 9.53408 23140 ft 472 kts 131°
2026-04-17 21:54 49.52845 9.57238 23177 ft 478 kts 131°
2026-04-17 21:54 49.50653 9.61082 23205 ft 473 kts 131°
2026-04-17 21:55 49.48497 9.64857 23204 ft 468 kts 131°
2026-04-17 21:55 49.46384 9.68552 23206 ft 464 kts 131°
2026-04-17 21:55 49.44255 9.72266 23196 ft 461 kts 131°
2026-04-17 21:55 49.42143 9.75945 23197 ft 458 kts 131°
2026-04-17 21:56 49.40042 9.79601 23206 ft 455 kts 131°
2026-04-17 21:56 49.37936 9.83216 23203 ft 453 kts 132°
2026-04-17 21:56 49.35838 9.86818 23210 ft 453 kts 132°
2026-04-17 21:56 49.33743 9.90431 23204 ft 454 kts 131°
2026-04-17 21:57 49.31643 9.94053 23210 ft 455 kts 131°
2026-04-17 21:57 49.29540 9.97681 23206 ft 455 kts 131°
2026-04-17 21:57 49.27465 10.01257 23205 ft 456 kts 131°
2026-04-17 21:57 49.25361 10.04880 23216 ft 456 kts 131°
2026-04-17 21:58 49.23251 10.08508 23210 ft 456 kts 131°
2026-04-17 21:58 49.21139 10.12136 23220 ft 457 kts 131°
2026-04-17 21:58 49.19008 10.15738 23217 ft 457 kts 133°
2026-04-17 21:58 49.16849 10.19307 23211 ft 457 kts 132°
2026-04-17 21:59 49.14732 10.22939 23213 ft 458 kts 131°
2026-04-17 21:59 49.12626 10.26583 23215 ft 458 kts 132°
2026-04-17 21:59 49.10463 10.30152 23213 ft 458 kts 133°
2026-04-17 21:59 49.08286 10.33600 23214 ft 458 kts 134°
2026-04-17 22:00 49.06068 10.37093 23227 ft 458 kts 134°
2026-04-17 22:00 49.03856 10.40593 23219 ft 459 kts 134°
2026-04-17 22:00 49.01645 10.44105 23214 ft 459 kts 133°
2026-04-17 22:00 48.99452 10.47634 23225 ft 459 kts 133°
2026-04-17 22:01 48.97246 10.51153 23224 ft 459 kts 134°
2026-04-17 22:01 48.95032 10.54665 23228 ft 460 kts 134°
2026-04-17 22:01 48.92816 10.58172 23225 ft 460 kts 134°
2026-04-17 22:01 48.90640 10.61651 23223 ft 460 kts 133°
2026-04-17 22:02 48.88429 10.65172 23221 ft 460 kts 134°
2026-04-17 22:02 48.86212 10.68678 23224 ft 460 kts 134°
2026-04-17 22:02 48.83990 10.72180 23219 ft 461 kts 134°
2026-04-17 22:02 48.81773 10.75695 23225 ft 461 kts 133°
2026-04-17 22:03 48.79561 10.79226 23223 ft 461 kts 134°
2026-04-17 22:03 48.77339 10.82735 23220 ft 462 kts 134°
2026-04-17 22:03 48.75112 10.86233 23215 ft 462 kts 134°
2026-04-17 22:03 48.72876 10.89733 23210 ft 462 kts 134°
2026-04-17 22:04 48.70669 10.93182 23204 ft 462 kts 134°
2026-04-17 22:04 48.68432 10.96675 23207 ft 462 kts 134°
2026-04-17 22:04 48.66192 11.00168 23202 ft 462 kts 134°
2026-04-17 22:04 48.63951 11.03661 23209 ft 463 kts 134°
2026-04-17 22:05 48.61712 11.07148 23208 ft 463 kts 134°
2026-04-17 22:05 48.59469 11.10642 23204 ft 463 kts 134°
2026-04-17 22:05 48.57226 11.14133 23206 ft 463 kts 134°
2026-04-17 22:05 48.54983 11.17622 23202 ft 463 kts 134°
2026-04-17 22:06 48.52768 11.21066 23207 ft 463 kts 134°
2026-04-17 22:06 48.50522 11.24556 23202 ft 464 kts 134°
2026-04-17 22:06 48.48276 11.28046 23201 ft 464 kts 134°
2026-04-17 22:06 48.46028 11.31536 23200 ft 464 kts 134°
2026-04-17 22:07 48.43781 11.35024 23206 ft 464 kts 134°
2026-04-17 22:07 48.41533 11.38510 23201 ft 464 kts 134°
2026-04-17 22:07 48.39283 11.41998 23203 ft 464 kts 134°
2026-04-17 22:07 48.37124 11.45539 23200 ft 463 kts 126°
2026-04-17 22:08 48.35588 11.49759 23212 ft 460 kts 108°
2026-04-17 22:08 48.34925 11.54429 23216 ft 456 kts 91°
2026-04-17 22:08 48.35167 11.59130 23219 ft 450 kts 74°
2026-04-17 22:08 48.36296 11.63468 23227 ft 444 kts 57°
2026-04-17 22:09 48.38167 11.67106 23231 ft 439 kts 45°
2026-04-17 22:09 48.40185 11.70561 23225 ft 440 kts 48°
2026-04-17 22:09 48.41927 11.74289 23222 ft 443 kts 57°
2026-04-17 22:09 48.43175 11.78547 23215 ft 448 kts 70°
2026-04-17 22:10 48.43915 11.83114 23224 ft 450 kts 77°
2026-04-17 22:10 48.44386 11.87780 23224 ft 451 kts 80°
2026-04-17 22:10 48.44782 11.92471 23219 ft 452 kts 80°
2026-04-17 22:10 48.45186 11.97154 23208 ft 441 kts 79°
2026-04-17 22:11 48.45598 12.01569 22875 ft 416 kts 79°
2026-04-17 22:11 48.46031 12.05891 21582 ft 419 kts 78°
2026-04-17 22:11 48.46481 12.10173 20281 ft 419 kts 78°
2026-04-17 22:11 48.46939 12.14444 18773 ft 407 kts 78°
2026-04-17 22:12 48.47394 12.18628 16956 ft 402 kts 78°
2026-04-17 22:12 48.47829 12.22767 15119 ft 398 kts 79°
2026-04-17 22:12 48.48246 12.26864 13263 ft 393 kts 79°
2026-04-17 22:12 48.48664 12.30901 11357 ft 386 kts 80°
2026-04-17 22:13 48.49072 12.34845 9789 ft 373 kts 81°
2026-04-17 22:13 48.49313 12.38643 8221 ft 357 kts 94°
2026-04-17 22:13 48.48651 12.42101 6763 ft 345 kts 119°
2026-04-17 22:13 48.47067 12.44638 5815 ft 322 kts 148°
2026-04-17 22:14 48.45054 12.45607 5344 ft 292 kts 178°
2026-04-17 22:14 48.43217 12.44919 5131 ft 260 kts 212°
2026-04-17 22:14 48.41922 12.43112 5039 ft 258 kts 231°
2026-04-17 22:14 48.41178 12.40607 5020 ft 269 kts 254°
2026-04-17 22:15 48.40727 12.37827 5009 ft 277 kts 257°
2026-04-17 22:15 48.40330 12.34948 5011 ft 285 kts 258°
2026-04-17 22:15 48.39918 12.32042 5000 ft 290 kts 254°
2026-04-17 22:15 48.39333 12.29209 4995 ft 277 kts 251°
2026-04-17 22:16 48.38715 12.26512 4985 ft 268 kts 250°
2026-04-17 22:16 48.38098 12.23909 4974 ft 260 kts 250°
2026-04-17 22:16 48.37492 12.21389 4969 ft 253 kts 250°
2026-04-17 22:16 48.36898 12.18941 4966 ft 246 kts 249°
2026-04-17 22:17 48.36347 12.16546 4959 ft 239 kts 258°
2026-04-17 22:17 48.36279 12.14106 4967 ft 231 kts 275°
2026-04-17 22:17 48.36474 12.11777 4965 ft 225 kts 279°
2026-04-17 22:17 48.36715 12.09487 4965 ft 219 kts 279°
2026-04-17 22:18 48.36974 12.07233 4811 ft 220 kts 277°
2026-04-17 22:18 48.36807 12.04992 4668 ft 217 kts 257°
2026-04-17 22:18 48.36490 12.02734 4455 ft 221 kts 259°
2026-04-17 22:18 48.36182 12.00470 4247 ft 222 kts 261°
2026-04-17 22:19 48.35945 11.98164 3881 ft 223 kts 264°
2026-04-17 22:19 48.35708 11.95966 3644 ft 205 kts 258°
2026-04-17 22:19 48.35533 11.93995 3320 ft 178 kts 258°
2026-04-17 22:19 48.35364 11.92213 2916 ft 162 kts 262°
2026-04-17 22:20 48.35242 11.90628 2603 ft 149 kts 262°
2026-04-17 22:20 48.35142 11.89101 2406 ft 148 kts 264°
2026-04-17 22:20 48.35015 11.87536 2325 ft 152 kts 263°
2026-04-17 22:20 48.34885 11.85939 2183 ft 156 kts 262°
2026-04-17 22:21 48.34754 11.84346 2005 ft 150 kts 265°
2026-04-17 22:21 48.34653 11.82818 1808 ft 143 kts 265°
2026-04-17 22:21 48.34543 11.81377 1639 ft 135 kts 265°
2026-04-17 22:21 48.34438 11.79952 1502 ft 138 kts 265°
2026-04-17 22:22 48.34342 11.78660 1484 ft 101 kts 263°
2026-04-17 22:22 48.34313 11.78061 1484 ft 32 kts 280°
2026-04-17 22:22 48.34377 11.77775 1481 ft 24 kts 294°
2026-04-17 22:22 48.34431 11.77597 1474 ft 13 kts 293°
2026-04-17 22:23 48.34458 11.77505 1480 ft 9 kts 302°
2026-04-17 22:23 48.34544 11.77434 1480 ft 15 kts 352°
2026-04-17 22:23 48.34626 11.77474 1480 ft 17 kts 69°
2026-04-17 22:23 48.34643 11.77636 1483 ft 12 kts 83°
2026-04-17 22:24 48.34655 11.77791 1480 ft 31 kts 82°
2026-04-17 22:24 48.34709 11.78495 1484 ft 110 kts 83°
2026-04-17 22:24 48.34776 11.79366 1477 ft 33 kts 85°
2026-04-17 22:24 48.34856 11.79558 1477 ft 21 kts 355°
2026-04-17 22:25 48.34956 11.79483 1478 ft 15 kts 272°
2026-04-17 22:25 48.34956 11.79178 1478 ft 23 kts 292°
2026-04-17 22:25 48.35032 11.79195 1484 ft 7 kts 91°
2026-04-17 22:25 48.35032 11.79198 1484 ft 0 kts 83°